Location: Mentone
(34.5413°N, 85.5351°W)
Time: 01:41:12
(UTC-05:00)

Cosmos 2026 Rocket - Visible Passes

Search period start: 05 May 2016 00:00
Search period end: 15 May 2016 00:00
Orbit: 939 x 1002 km, 82.9° (Epoch: 04 May)

Date Brightness Start Highest point End Pass type
(mag) Time Alt. Az. Time Alt. Az. Time Alt. Az.
05 May 6.2 01:10:33 15° ENE 01:10:33 15° ENE 01:13:22 10° NE visible
05 May 4.1 02:55:07 60° NW 02:55:07 60° NW 03:00:38 10° N visible
06 May 5.5 01:34:27 28° ENE 01:34:27 28° ENE 01:38:43 10° NNE visible
06 May 4.8 03:19:01 33° WNW 03:19:01 33° WNW 03:24:08 10° NNW visible
07 May 4.7 01:58:21 49° NE 01:58:21 49° NE 02:03:14 10° NNE visible
07 May 5.5 03:42:55 18° WNW 03:42:55 18° WNW 03:46:57 10° NNW visible
08 May 6.4 00:37:40 11° ENE 00:37:40 11° ENE 00:38:33 10° ENE visible
08 May 4.3 02:22:14 61° NNW 02:22:14 61° NNW 02:27:17 10° N visible
09 May 5.8 01:01:32 21° ENE 01:01:32 21° ENE 01:04:53 10° NE visible
09 May 4.7 02:46:06 40° NW 02:46:06 40° NW 02:50:57 10° N visible
10 May 5.1 01:25:23 37° ENE 01:25:23 37° ENE 01:29:39 10° NNE visible
10 May 5.4 03:09:57 23° WNW 03:09:57 23° WNW 03:14:06 10° NNW visible
11 May 4.5 01:49:13 54° NNE 01:49:13 54° NNE 01:53:52 10° N visible
11 May 5.9 03:33:47 12° WNW 03:33:47 12° WNW 03:35:59 10° NW visible
12 May 6.1 00:28:29 16° ENE 00:28:29 16° ENE 00:30:49 10° NE visible
12 May 4.6 02:13:03 46° NW 02:13:03 46° NW 02:17:42 10° N visible
13 May 5.5 00:52:18 28° ENE 00:52:18 28° ENE 00:55:58 10° NNE visible
13 May 5.2 02:36:51 28° WNW 02:36:51 28° WNW 02:41:05 10° NNW visible
14 May 4.8 01:16:06 45° NE 01:16:06 45° NE 01:20:23 10° NNE visible
14 May 5.8 03:00:39 16° WNW 03:00:39 16° WNW 03:03:43 10° NW visible
14 May 6.3 23:55:20 12° ENE 23:55:20 12° ENE 23:56:21 10° ENE visible
